Regional Weather Roundup
Issued by NWS

Home | Current Version | Previous Version | Graphics & Text | Print | Product List | Glossary On
Versions: 1 2 3 4 5 6 7 8 9 10 11 12 13 14 15 16 17 18 19 20 21 22 23 24 25 26 27 28 29 30 31 32 33 34 35 36 37 38 39 40 41 42 43 44 45 46 47 48 49 50
000
ASUS43 KMPX 050501
RWRMN
WEATHER ROUNDUP FOR MINNESOTA
NATIONAL WEATHER SERVICE TWIN CITIES/CHANHASSEN MN
1200 AM CDT SUN JUL 05 2015


NOTE: "FAIR" INDICATES FEW OR NO CLOUDS BELOW 12,000 FEET WITH NO
SIGNIFICANT WEATHER AND/OR OBSTRUCTIONS TO VISIBILITY. N/A MEANS
CURRENT SKY AND/OR WEATHER CONDITIONS ARE NOT AVAILABLE.

MNZ060>063-068>070-050600-
   Twin Cities Metro

CITY           SKY/WX    TMP DP  RH WIND       PRES   REMARKS
TWIN CITIES    CLEAR     74  61  63 S8        29.95R
ST PAUL        CLEAR     68  65  90 S8        29.95R FOG
CRYSTAL        CLEAR     74  62  66 S6        29.93R
BLAINE         CLEAR     73  63  68 S5        29.95R
LAKEVILLE      CLEAR     63  61  94 CALM      29.96R
EDEN PRAIRIE   CLEAR     71  62  73 S6        29.94R
SOUTH ST PAUL  CLEAR     71  62  72 S5        29.95R
LAKE ELMO      FAIR      68  64  88 S7        29.97R
$$
MNZ001>005-007-008-013>017-022>024-027-028-050600-
   Northwest Minnesota

CITY           SKY/WX    TMP DP  RH WIND       PRES   REMARKS
BEMIDJI        MOCLDY    72  65  79 S8        29.81F
HALLOCK        CLOUDY    66  63  88 E21G33    29.72R
ROSEAU         CLOUDY    63  57  82 E10       29.79S
WARROAD        DRIZZLE   64  61  88 E13       29.82F
THIEF RVR FALL MOCLDY    72  64  78 S8        29.77R
CROOKSTON      MOCLDY    75  64  69 S16       29.75R
FOSSTON        MOCLDY    72  63  73 S10       29.80R
DETROIT LAKES  MOCLDY    73  63  68 S10G18    29.82F
MOORHEAD       PTCLDY    73  64  73 S13       29.77F
PARK RAPIDS    MOCLDY    73  64  73 S14       29.83F
MAHNOMEN       FAIR      73  64  74 S13       29.80S
$$
MNZ006-009>011-018-025>026-050600-
   North Central Minnesota

CITY           SKY/WX    TMP DP  RH WIND       PRES   REMARKS
BAUDETTE       LGT RAIN  63  60  90 E8        29.85F
INTL FALLS     CLOUDY    71  61  70 VRB3      29.84R HAZE
WASKISH        CLOUDY    70  64  83 NE3       29.83R HAZE
BIG FORK       MOCLDY    70  63  78 CALM      29.86S HAZE
LONGVILLE      PTCLDY    66  64  94 SE6       29.86F FOG
GRAND RAPIDS   PTCLDY    66  61  82 SE7       29.88F
CRANE LAKE     MOCLDY    66  59  77 SE7       29.87F
ORR            MOCLDY    66  57  72 SE3       29.85F
COOK           MOCLDY    66  57  72 SE9       29.87F
WALKER         FAIR      71  65  81 S6        29.84F
$$
MNZ012-019>021-037-050600-
   Northeast Minnesota

CITY           SKY/WX    TMP DP  RH WIND       PRES   REMARKS
DULUTH         PTCLDY    61  55  81 E7        29.94F
ELY            PTCLDY    61  52  72 S5        29.92F
HIBBING        PTCLDY    61  57  87 SE5       29.90F
DULUTH HARBOR  PTCLDY    61  57  88 E9        29.94F
SILVER BAY     CLEAR     57  54  88 CALM      29.93S
GRAND MARAIS     N/A     57  53  86 NE3       29.94F
G MARAIS ARPRT CLEAR     54  48  82 CALM      29.98F
$$
MNZ029>031-032-039>041-046>048-054>057-064-050600-
   West Central Minnesota

CITY           SKY/WX    TMP DP  RH WIND       PRES   REMARKS
FERGUS FALLS   PTCLDY    72  63  73 S12       29.81F
WHEATON        PTCLDY    70  63  78 SE13      29.82F
MORRIS         CLEAR     70  64  83 SE8       29.84F HAZE
ALEXANDRIA     CLEAR     70  64  81 S8        29.89F
ELBOW LAKE     FAIR      71  65  81 SE10      29.84F
WADENA         PTCLDY    70  63  78 S8        29.85F
GLENWOOD       CLEAR     68  64  88 S9        29.89F
APPLETON       PTCLDY    72  64  78 SE6       29.85F
BENSON         CLEAR     70  63  78 S7        29.87F
ORTONVILLE     PTCLDY    70  64  83 SE6       29.84F
MADISON        PTCLDY    70  63  78 SE6       29.86F
WILLMAR        FAIR      70  63  78 S5        29.91F
$$
MNZ033>034-036-042>043-049>051-058-059-050600-
   Central Minnesota

CITY           SKY/WX    TMP DP  RH WIND       PRES   REMARKS
ST CLOUD       CLEAR     68  64  87 SE6       29.91S FOG
SAUK CENTRE    FAIR      66  64  93 SE6       29.90F FOG
PAYNESVILLE    CLEAR     67  63  86 SE6       29.92S
AITKIN         CLEAR     70  63  78 S6        29.88F HAZE
PINE RIVER     PTCLDY    66  64  94 S5        29.90F FOG
BRAINERD       PTCLDY    69  65  86 S7        29.89F FOG
STAPLES        CLEAR     70  64  83 S7        29.86F
LONG PRAIRIE   FAIR      66  63  88 SE8       29.90F
LITTLE FALLS   CLEAR     68  63  83 SE6       29.90F
LITCHFIELD     CLEAR     72  66  83 S3        29.93S
BUFFALO        CLEAR     71  61  71 S5        29.95R
MAPLE LAKE     CLEAR     69  65  86 SE3       29.94R
$$
MNZ037-044-045-052-053-050600-
   East Central Minnesota

CITY           SKY/WX    TMP DP  RH WIND       PRES   REMARKS
PRINCETON      CLEAR     70  64  83 CALM      29.93S
MORA           CLEAR     64  61  88 CALM      29.95R
CAMBRIDGE      CLEAR     72  61  68 CALM      29.92R
RUSH CITY      PTCLDY    66  64  92 CALM      29.94R
MOOSE LAKE     PTCLDY    61  55  82 CALM      29.92S
HINCKLEY       FAIR      66  64  94 CALM      29.94R FOG
CLOQUET        PTCLDY    59  55  88 CALM      29.94S
MCGREGOR       CLEAR     64  63  94 SE6       29.91F
$$
MNZ071>073-080-081-089-090-097-098-050600-
   Southwest Minnesota

CITY           SKY/WX    TMP DP  RH WIND       PRES   REMARKS
MONTEVIDEO     PTCLDY    70  64  83 S6        29.88F
GRANITE FALLS  CLEAR     68  63  85 SE7       29.90F
CANBY          PTCLDY    67  64  87 SE7       29.87F
MARSHALL       PTCLDY    68  61  77 S8        29.88
REDWOOD FALLS  CLEAR     67  62  84 S9        29.91S
OLIVIA         CLEAR     68  61  77 S7        29.91F
PIPESTONE      PTCLDY    70  63  78 S8        29.91F
WINDOM         CLEAR     66  61  82 CALM      29.95S
WORTHINGTON    CLEAR     66  57  72 S13       29.94S
JACKSON        CLEAR     64  61  88 S7        29.96S
TRACY          CLEAR     71  63  75 S9        29.91F
SLAYTON        CLEAR     65  62  91 CALM      29.94S
$$
MNZ065>067-074>077-082>085-091>093-050600-
   South Central Minnesota

CITY           SKY/WX    TMP DP  RH WIND       PRES   REMARKS
MANKATO        CLEAR     66  59  77 S7        29.95R
NEW ULM        CLEAR     64  61  88 S5        29.94S
ST JAMES       CLEAR     66  61  82 S7        29.96R
FAIRMONT       CLEAR     63  55  77 S7        29.96R
GLENCOE        CLEAR     69  64  84 S5        29.94R
FARIBAULT      CLEAR     66  61  82 S3        29.97R
OWATONNA       CLEAR     68  59  73 S8        29.98R
WASECA         CLEAR     63  57  82 SE5       29.98R
ALBERT LEA     CLEAR     70  61  73 S7        29.98R
$$
MNZ078>079-086>088-094>096-050600-
   Southeast Minnesota

CITY           SKY/WX    TMP DP  RH WIND       PRES   REMARKS
ROCHESTER      CLEAR     64  60  87 S7        30.00R
RED WING       CLEAR     70  61  73 CALM      29.95R
DODGE CENTER   CLEAR     64  61  88 S7        29.99R
WINONA         CLEAR     70  61  73 CALM      29.97S
AUSTIN         CLEAR     66  61  82 S5        29.99R
PRESTON        CLEAR     64  59  81 SW6       30.01R
$$
ABBREVIATIONS USED IN REMARKS
   TC - TEMPERATURES IN CELSIUS
  WCI - WIND CHILL INDEX
   HX - HEAT INDEX
  VSB - VISIBILITY
$$



USA.gov is the U.S. government's official web portal to all federal, state and local government web resources and services.